Weather History for PHNY - January, 2014

Change the Weather History Date:

Thursday, January 23, 2014

  Actual Average Record
Temperature  
Mean Temperature 64 °F -  
Max Temperature 73 °F 75 °F 82 °F (2002)
Min Temperature 56 °F 59 °F 52 °F (1952)
Growing Degree Days 14 (Base 50)    
Moisture  
Dew Point 53 °F    
Average Humidity 69    
Maximum Humidity 87    
Minimum Humidity 48    
Precipitation  
Precipitation 0.00 in - - ()
Sea Level Pressure  
Sea Level Pressure 29.93 in    
Wind  
Wind Speed 8 mph (NE)    
Max Wind Speed 10 mph    
Max Gust Speed -    
Visibility 10 miles    
Events      
Averages and records for this station are not official NWS values.
T = Trace of Precipitation, MM = Missing Value Source: NWS Daily Summary

Daily Weather History Graph

Daily Weather History Graph

Search for Another Location

Airport or City:

Trip Planner

Search our weather history database for the weather conditions in past years. The results will help you decide how hot, cold, wet, or windy it might be!

Date:

Astronomy

Jan. 23, 2014 Rise Set
Actual Time 7:06 AM HST 6:13 PM HST
Civil Twilight 6:43 AM HST 6:36 PM HST
Nautical Twilight 6:16 AM HST 7:03 PM HST
Astronomical Twilight 5:49 AM HST 7:30 PM HST
Moon No Moon Rise 11:48 AM HST (1/23)
Length of Visible Light 11h 53m
Length of Day
11h 06m
Waning Gibbous, 53% of the Moon is Illuminated
Jan 23
Waning Gibbous
Jan 23
Last Quarter
Jan 30
New
Feb 6
First Quarter
Feb 14
Full

Hourly Weather History & Observations

Time (HST) Temp. Dew Point Humidity Pressure Visibility Wind Dir Wind Speed Gust Speed Precip Events Conditions
12:56 AM 59.0 °F 50.9 °F 74% 29.91 in 10.0 mi North 9.2 mph - N/A   Clear
1:56 AM 56.8 °F 50.9 °F 80% 29.91 in 10.0 mi NE 5.8 mph - N/A   Clear
2:56 AM 59.0 °F 52.0 °F 78% 29.89 in 10.0 mi NE 6.9 mph - N/A   Clear
3:56 AM 59.0 °F 50.9 °F 74% 29.87 in 10.0 mi ENE 10.4 mph - N/A   Clear
4:56 AM 56.8 °F 50.9 °F 80% 29.88 in 10.0 mi ENE 5.8 mph - N/A   Clear
5:56 AM 57.9 °F 52.0 °F 81% 29.91 in 10.0 mi NE 10.4 mph - N/A   Clear
6:56 AM 57.9 °F 52.0 °F 81% 29.93 in 10.0 mi NNE 8.1 mph - N/A   Clear
7:56 AM 61.0 °F 50.9 °F 69% 29.94 in 10.0 mi East 6.9 mph - N/A   Clear
8:56 AM 66.9 °F 52.9 °F 61% 29.96 in 10.0 mi East 8.1 mph - N/A   Clear
9:56 AM 70.0 °F 52.0 °F 53% 29.96 in 10.0 mi NE 8.1 mph - N/A   Clear
10:56 AM 69.8 °F 51.8 °F 53% 29.99 in 10.0 mi NE 8.1 mph - N/A   Partly Cloudy
11:56 AM 72.0 °F 52.9 °F 51% 29.93 in 10.0 mi East 9.2 mph - N/A   Partly Cloudy
12:56 PM 70.9 °F 54.0 °F 55% 29.91 in 10.0 mi SSW 5.8 mph - N/A   Overcast
1:56 PM 73.9 °F 54.0 °F 50% 29.86 in 10.0 mi Variable 6.9 mph - N/A   Scattered Clouds
2:56 PM 72.9 °F 52.0 °F 48% 29.86 in 10.0 mi SSW 6.9 mph - N/A   Clear
3:56 PM 72.9 °F 52.9 °F 49% 29.86 in 10.0 mi SW 5.8 mph - N/A   Clear
4:56 PM 72.0 °F 54.9 °F 55% 29.91 in 10.0 mi NNW 9.2 mph - N/A   Clear
5:56 PM 68.0 °F 55.9 °F 65% 29.93 in 10.0 mi NNW 4.6 mph - N/A   Mostly Cloudy
6:26 PM 62.6 °F 53.6 °F 72% 29.96 in 10.0 mi NNE 8.1 mph - N/A   Scattered Clouds
6:56 PM 61.9 °F 54.0 °F 75% 29.94 in 10.0 mi NNE 8.1 mph - N/A   Clear
7:56 PM 59.9 °F 54.0 °F 81% 29.96 in 10.0 mi North 8.1 mph - N/A   Clear
8:56 PM 59.9 °F 55.9 °F 87% 29.97 in 10.0 mi NNE 8.1 mph - N/A   Clear
9:56 PM 59.0 °F 54.0 °F 83% 29.98 in 10.0 mi North 8.1 mph - N/A   Clear
10:56 PM 59.9 °F 54.9 °F 83% 29.99 in 10.0 mi North 8.1 mph - N/A   Clear
11:56 PM 59.9 °F 54.0 °F 81% 29.96 in 10.0 mi North 6.9 mph - N/A   Clear